Vorticity
5 14 8 5 11 13 4 2 7 3 3 3 4 4 2 3 5 5 6 6 6 6 5 6 7 7 5 3 2 2 8 9
-3 7 2 9 6 12 8 12 1 5 2 8 5 4 0 4 4 5 5 6 7 5 5 5 7 7 5 4 3 5 7 10
9 4 6 6 9 6 8 4 10 2 11 5 13 7 3 4 5 7 5 6 8 10 8 6 6 6 5 5 6 5 5 8
10 8 7 -2 8 13 7 12 8 8 3 7 9 10 -8 11 1 6 7 6 9 4 10 9 6 6 5 5 3 3 7 3
22 1 9 18 2 -8 1 8 12 7 4 4 3 21 6 21 13 -7 -6 3 17 14 5 9 8 7 7 6 2 8 -2 2
28 -1 10 6 -2 4 24 12 10 10 6 9 9 12 7 -3 2 -10 -3 3 8 20 4 7 8 9 8 7 4 6 3 6
17 16 21 12 9 14 29 -2 8 9 5 9 12 5 -0 7 1 11 3 19 3 21 14 7 5 8 8 12 3 7 5 4
8 12 4 14 12 15 15 21 12 17 8 6 7 8 5 5 5 -1 5 3 -9 7 2 13 11 6 8 10 7 9 5 9
2 -0 -6 7 -0 8 6 3 10 13 17 10 5 7 6 7 8 6 2 7 11 12 6 25 11 2 4 8 11 8 6 4
23 9 5 -5 1 11 14 3 3 9 15 14 11 6 6 7 9 6 10 7 18 -3 -3 7 -0 6 6 5 7 11 2 1
15 4 14 9 -9 -2 -14 30 9 3 3 20 13 9 9 6 8 7 8 7 10 -4 15 2 15 13 21 1 4 8 -1 12
15 17 7 11 14 -12 13 -17 -7 8 2 -2 15 11 6 8 5 5 8 4 9 -0 1 -2 11 2 14 12 -3 1 9 4
12 12 2 -4 2 10 -4 8 0 -2 13 3 3 11 9 10 3 7 7 9 12 8 -2 1 12 9 1 26 11 7 6 6
9 1 -8 -5 -2 9 36 9 -6 -3 -7 -2 0 10 7 7 14 6 4 9 10 15 7 -0 8 16 11 18 9 12 15 10
14 14 5 13 8 21 13 19 24 21 8 3 -2 -6 9 10 9 9 7 8 11 12 9 10 -6 3 18 16 -9 10 -7 23
10 11 14 11 11 14 20 10 10 8 10 9 8 11 7 -1 8 11 7 2 7 10 13 9 7 -0 5 18 14 2 12 5
13 9 6 10 5 11 17 15 9 14 12 8 10 9 8 10 6 10 8 10 3 7 9 10 8 2 -2 -6 -2 -2 3 6
29 24 13 8 11 7 8 15 14 18 7 8 10 10 8 4 6 8 8 8 13 7 3 7 14 7 0 1 2 5 6 9
35 28 21 18 14 8 13 14 17 17 22 13 8 11 8 9 10 8 7 7 8 9 15 8 4 8 16 13 10 6 1 3
Height
3136 3138 3142 3145 3149 3153 3156 3160 3162 3165 3167 3171 3175 3177 3180 3183 3186 3188 3192 3194 3197 3198 3199 3201 3203 3205 3206 3208 3209 3210 3211 3212
3130 3134 3137 3141 3145 3148 3152 3155 3157 3159 3165 3168 3171 3175 3176 3181 3185 3188 3190 3193 3195 3196 3197 3198 3200 3203 3204 3206 3207 3208 3209 3210
3124 3129 3132 3136 3141 3145 3149 3152 3153 3155 3162 3166 3169 3173 3175 3181 3184 3187 3189 3191 3193 3195 3196 3197 3198 3199 3201 3203 3204 3205 3206 3208
3119 3123 3127 3133 3135 3140 3144 3148 3151 3152 3157 3162 3165 3168 3171 3177 3180 3183 3185 3189 3191 3191 3193 3195 3195 3196 3199 3200 3201 3202 3204 3205
3116 3117 3123 3129 3132 3136 3139 3145 3145 3148 3152 3157 3161 3163 3166 3171 3178 3180 3181 3183 3186 3186 3189 3191 3192 3194 3195 3197 3198 3199 3200 3201
3116 3117 3122 3128 3130 3133 3136 3138 3140 3140 3145 3151 3156 3159 3164 3168 3173 3175 3176 3178 3180 3180 3184 3187 3188 3190 3191 3193 3194 3195 3197 3198
3114 3117 3120 3122 3125 3127 3129 3131 3135 3137 3141 3145 3151 3155 3159 3161 3165 3170 3172 3174 3174 3174 3177 3182 3185 3185 3188 3189 3190 3191 3193 3194
3102 3104 3105 3108 3114 3118 3122 3126 3129 3132 3137 3140 3145 3150 3154 3156 3159 3163 3166 3168 3171 3169 3171 3174 3177 3180 3183 3185 3186 3188 3189 3190
3089 3093 3096 3098 3101 3105 3110 3115 3123 3127 3131 3135 3139 3144 3147 3150 3152 3155 3159 3163 3166 3166 3165 3167 3171 3173 3176 3178 3180 3183 3184 3185
3080 3085 3090 3093 3094 3099 3103 3105 3112 3119 3124 3129 3133 3138 3140 3144 3147 3149 3152 3157 3159 3159 3161 3162 3164 3166 3167 3171 3174 3177 3178 3180
3074 3081 3087 3090 3092 3096 3101 3103 3107 3109 3117 3122 3126 3130 3134 3137 3141 3143 3146 3150 3151 3154 3156 3156 3157 3157 3161 3162 3165 3168 3171 3173
3072 3076 3083 3088 3091 3095 3098 3101 3102 3105 3106 3111 3117 3121 3126 3129 3132 3136 3139 3143 3144 3145 3148 3150 3151 3152 3154 3155 3158 3160 3162 3165
3074 3078 3082 3088 3094 3097 3098 3098 3099 3100 3103 3104 3106 3113 3117 3121 3124 3128 3132 3135 3138 3139 3139 3142 3143 3144 3146 3147 3150 3153 3155 3156
3072 3075 3078 3081 3086 3089 3090 3092 3094 3095 3097 3099 3102 3104 3107 3111 3115 3120 3124 3127 3130 3132 3132 3134 3135 3137 3139 3140 3144 3145 3147 3149
3070 3073 3073 3073 3074 3076 3080 3081 3085 3089 3090 3093 3097 3099 3102 3103 3106 3110 3113 3117 3121 3124 3126 3128 3128 3130 3131 3134 3136 3137 3138 3140
3062 3064 3064 3064 3064 3066 3068 3071 3074 3078 3081 3083 3086 3091 3094 3098 3099 3101 3104 3107 3110 3114 3117 3119 3121 3123 3124 3126 3129 3131 3130 3132
3054 3054 3054 3055 3056 3056 3058 3061 3064 3067 3070 3074 3078 3081 3084 3087 3090 3093 3095 3097 3101 3105 3107 3110 3112 3113 3117 3120 3121 3122 3122 3122
3044 3045 3045 3044 3045 3047 3050 3052 3054 3057 3060 3064 3068 3071 3073 3077 3080 3084 3086 3088 3092 3095 3098 3100 3102 3104 3106 3111 3113 3113 3113 3113
3037 3034 3034 3035 3036 3037 3040 3042 3045 3047 3050 3054 3058 3061 3065 3068 3071 3074 3078 3080 3082 3085 3088 3090 3092 3093 3097 3099 3101 3102 3102 3102